Regional Weather Roundup
Issued by NWS

Home | Current Version | Previous Version | Text Only | Print | Product List | Glossary Off
Versions: 1 2 3 4 5 6 7 8 9 10 11 12 13 14 15 16 17 18 19 20 21 22 23 24 25 26 27 28 29 30 31 32 33 34 35 36 37 38 39 40 41 42 43 44 45 46 47 48 49 50

000
ASUS43 KFSD 181410
RWRSD

WEATHER ROUNDUP FOR SOUTH DAKOTA
NATIONAL WEATHER SERVICE SIOUX FALLS SD
800 AM CST SAT FEB 18 2017

NOTE: "FAIR" INDICATES FEW OR NO CLOUDS BELOW 12,000 FEET WITH NO
SIGNIFICANT WEATHER AND/OR OBSTRUCTIONS TO VISIBILITY.


SDZ001>005-009-010-012>017-181500-
NORTHWEST AND NORTH CENTRAL SOUTH DAKOTA

CITY           SKY/WX    TMP DP  RH WIND       PRES   REMARKS
BUFFALO          N/A     36  27  69 NE12      29.56F
FAITH            N/A     40  28  62 SE14      29.68F
MOBRIDGE       CLOUDY    31  25  78 SE6       29.73S WCI  25
$$

SDZ012>016-024>037-041>051-057-063-072>074-181500-
SOUTHWEST AND SOUTH CENTRAL SOUTH DAKOTA

CITY           SKY/WX    TMP DP  RH WIND       PRES   REMARKS
RAPID CTY ARPT CLOUDY    38  26  62 SE9       29.65F
PIERRE         CLOUDY    30  26  85 SW3       29.76S
CUSTER         CLOUDY    39  21  48 SW3       29.69F
ELLSWORTH AFB  CLOUDY    41  25  51 S16       29.63F
PHILIP         PTCLDY    30  27  88 E5        29.73F WCI  25
PINE RIDGE     CLEAR     41  28  60 VRB3      29.72F
SPEARFISH      FAIR      52  23  32 SW20G25   29.61F
WINNER         FAIR      35  26  69 CALM      29.78R
$$

SDZ004>011-016>023-039-040-181500-
NORTHEAST SOUTH DAKOTA

CITY           SKY/WX    TMP DP  RH WIND       PRES   REMARKS
ABERDEEN       CLOUDY    31  27  85 SW8       29.77R WCI  23
WATERTOWN      PTCLDY    30  29  96 S3        29.77R
BROOKINGS      CLOUDY    31  29  92 CALM      29.79R
SISSETON         N/A     37  34  89 CALM      29.74R
$$

SDZ017-020-022-023-036>040-048>070-181500-
SOUTHEAST SOUTH DAKOTA

CITY           SKY/WX    TMP DP  RH WIND       PRES   REMARKS
SIOUX FALLS    PTCLDY    33  30  88 N5        29.80R WCI  29
HURON          CLEAR     28  27  96 E3        29.79R
CHAMBERLAIN    CLOUDY    31  29  93 CALM      29.79R
MITCHELL       PTCLDY    32  29  88 S3        29.79S
YANKTON        PTCLDY    32  27  80 CALM      29.79R
$$

ABBREVIATIONS USED IN REMARKS
   TC - TEMPERATURE IN CELSIUS
  WCI - WIND CHILL INDEX
   HX - HEAT INDEX
  VSB - VISIBILITY





USA.gov is the U.S. government's official web portal to all federal, state and local government web resources and services.